Location: Brivio
(45.7333°N, 9.4500°E)
Time: 12:51:52
(UTC+00:00)

N. Korean satellite - Pass Details

Date: 10 December 2019
Orbit: 454 x 508 km, 97.2° (Epoch: 17 January)

Event Time Altitude Azimuth Distance (km) Brightness Sun altitude
Rises 17:11:05 0° 198° (SSW) 2,601 10.8 -15.5°
Reaches altitude 10° 17:13:31 10° 214° (SW) 1,720 10.1 -16.0°
Maximum altitude 17:16:26 22° 266° (W) 1,154 9.4 -16.4°
Drops below altitude 10° 17:19:22 10° 318° (NW) 1,722 9.7 -16.9°
Sets 17:21:49 0° 335° (NNW) 2,605 10.4 -17.3°
